Location: Barnston
(51.8500°N, 0.4000°E)
Time: 11:25:49
(UTC+00:00)

Cosmos 1743 - Pass Details

Date: 26 September 2023
Orbit: 486 x 502 km, 82.5° (Epoch: 28 November)

Event Time Altitude Azimuth Distance (km) Brightness Sun altitude
Rises 03:48:34 0° 354° (N) 2,629 6.5 -19.1°
Reaches altitude 10° 03:50:48 10° 3° (N) 1,736 5.7 -18.8°
Maximum altitude 03:54:24 39° 73° (ENE) 770 4.1 -18.3°
Drops below altitude 10° 03:57:57 10° 144° (SE) 1,711 5.5 -17.8°
Sets 04:00:08 0° 152° (SSE) 2,586 6.3 -17.5°
